Imperial, NE

8:42 AM MDT on April 24, 2017 (GMT -0600)
Imperial Municipal

Weather History for KIML - January, 2014

Change the Weather History Date:

Sunday, January 26, 2014

  Actual Average Record
Temperature  
Mean Temperature 35 °F 29 °F  
Max Temperature 57 °F 41 °F 72 °F (1951)
Min Temperature 12 °F 16 °F -19 °F (1948)
Degree Days  
Heating Degree Days 30 36  
Month to date heating degree days 881 956  
Cooling Degree Days 0 0  
Month to date cooling degree days 0 0  
Year to date cooling degree days 0 0  
Moisture  
Dew Point 16 °F    
Average Humidity 48    
Maximum Humidity 69    
Minimum Humidity 26    
Precipitation  
Precipitation T in 0.02 in 0.77 in (1994)
Sea Level Pressure  
Sea Level Pressure 29.95 in    
Wind  
Wind Speed 19 mph (NNW)    
Max Wind Speed 44 mph    
Max Gust Speed 58 mph    
Visibility 8 miles    
Events      
T = Trace of Precipitation, MM = Missing Value Source: NWS Daily Summary

Daily Weather History Graph

Daily Weather History Graph

Search for Another Location

Airport or City:

Trip Planner

Search our weather history database for the weather conditions in past years. The results will help you decide how hot, cold, wet, or windy it might be!

Date:

Astronomy

Jan. 26, 2014 Rise Set
Actual Time 7:01 AM MST 4:57 PM MST
Civil Twilight 6:31 AM MST 5:26 PM MST
Nautical Twilight 5:58 AM MST 5:59 PM MST
Astronomical Twilight 5:26 AM MST 6:31 PM MST
Moon 2:40 AM MST (1/26) 12:48 PM MST (1/26)
Length of Visible Light 10h 54m
Length of Day
9h 56m
Waning Crescent, 23% of the Moon is Illuminated
Jan 26
Waning Crescent
Jan 30
New
Feb 6
First Quarter
Feb 14
Full
Feb 22
Last Quarter

Hourly Weather History & Observations

Time (MST) Temp. Windchill Dew Point Humidity Pressure Visibility Wind Dir Wind Speed Gust Speed Precip Events Conditions
12:53 AM 41.0 °F 33.5 °F 19.0 °F 41% 29.81 in 10.0 mi West 13.8 mph - N/A   Clear
1:53 AM 37.9 °F 30.0 °F 19.0 °F 47% 29.81 in 10.0 mi WNW 12.7 mph - N/A   Clear
2:53 AM 44.1 °F 36.8 °F 21.0 °F 40% 29.79 in 10.0 mi WNW 16.1 mph 23.0 mph N/A   Clear
3:53 AM 45.0 °F 37.6 °F 24.1 °F 44% 29.78 in 10.0 mi NW 17.3 mph 25.3 mph N/A   Clear
4:53 AM 42.1 °F 34.5 °F 24.1 °F 49% 29.81 in 10.0 mi NW 15.0 mph - N/A   Clear
5:53 AM 41.0 °F 32.5 °F 25.0 °F 53% 29.82 in 10.0 mi NW 17.3 mph - N/A   Clear
6:53 AM 36.0 °F 29.0 °F 24.1 °F 62% 29.84 in 10.0 mi WNW 9.2 mph - N/A   Clear
7:53 AM 36.0 °F 27.1 °F 23.0 °F 59% 29.84 in 10.0 mi West 13.8 mph - N/A   Clear
8:53 AM 43.0 °F 35.7 °F 24.1 °F 47% 29.83 in 10.0 mi WNW 15.0 mph - N/A   Clear
9:53 AM 48.9 °F - 24.1 °F 38% 29.80 in 10.0 mi WNW 15.0 mph - N/A   Clear
10:53 AM 53.1 °F - 23.0 °F 31% 29.77 in 10.0 mi NW 18.4 mph 25.3 mph N/A   Clear
11:53 AM 55.0 °F - 23.0 °F 29% 29.76 in 10.0 mi NNW 19.6 mph 29.9 mph N/A   Clear
12:53 PM 55.0 °F - 21.9 °F 28% 29.74 in 10.0 mi NNW 32.2 mph 40.3 mph N/A   Clear
1:53 PM 52.0 °F - 26.1 °F 37% 29.79 in 10.0 mi North 34.5 mph 42.6 mph N/A   Clear
2:53 PM 46.9 °F - 24.1 °F 41% 29.83 in 10.0 mi North 25.3 mph 44.9 mph N/A   Mostly Cloudy
3:07 PM 37.4 °F 24.4 °F 24.8 °F 60% 29.86 in 1.8 mi NNE 33.4 mph 52.9 mph N/A   Haze
3:13 PM 35.6 °F 22.5 °F 23.0 °F 60% 29.87 in 3.0 mi NNE 29.9 mph 42.6 mph N/A   Haze
3:34 PM 32.0 °F 16.0 °F 19.4 °F 60% 29.89 in 3.0 mi NNE 39.1 mph 47.2 mph N/A   Haze
3:49 PM 30.2 °F 13.7 °F 19.4 °F 64% 29.93 in 1.8 mi North 38.0 mph 57.5 mph N/A   Haze
3:50 PM 30.9 °F 14.5 °F 19.9 °F 64% 29.98 in 1.8 mi North 39.1 mph 57.5 mph N/A   Haze
3:57 PM 30.2 °F 13.3 °F 19.4 °F 64% 29.94 in 3.0 mi North 40.3 mph 50.6 mph 0.00 in   Overcast
4:53 PM 28.0 °F 14.3 °F 19.9 °F 72% 30.06 in 10.0 mi North 21.9 mph 27.6 mph 0.00 in   Unknown
5:53 PM 26.1 °F 12.7 °F 10.0 °F 51% 30.13 in 10.0 mi NNE 18.4 mph 32.2 mph N/A   Partly Cloudy
6:53 PM 21.0 °F 5.0 °F 3.9 °F 48% 30.21 in 10.0 mi North 21.9 mph 33.4 mph N/A   Clear
7:53 PM 18.0 °F 2.2 °F 1.9 °F 50% 30.27 in 10.0 mi North 18.4 mph - N/A   Partly Cloudy
8:53 PM 18.0 °F 0.2 °F -7.1 °F 33% 30.30 in 10.0 mi North 24.2 mph 33.4 mph N/A   Unknown
9:53 PM 16.0 °F -1.3 °F -8.0 °F 34% 30.32 in 10.0 mi North 20.7 mph 26.5 mph N/A   Overcast
10:53 PM 14.0 °F -0.2 °F -8.0 °F 37% 30.33 in 10.0 mi North 12.7 mph 20.7 mph N/A   Mostly Cloudy
11:53 PM 12.0 °F -0.4 °F -6.0 °F 44% 30.33 in 10.0 mi North 9.2 mph - N/A   Mostly Cloudy